7 * 24
多渠道服务支持
STARLINK-33642是美国SpaceX公司星链(Starlink)星座中的一颗低轨通信卫星,于2025年5月13日发射入轨。作为星链全球卫星互联网计划的组成部分,它运行在近地轨道,依托星链成熟的星座技术,参与构建覆盖全球的高速低延迟宽带网络,可为偏远地区、特殊场景提供互联网接入服务。不过,同其他星链卫星一样,它也面临着轨道资源竞争、太空碰撞风险以及天文观测干扰等争议。
美国
(US)
| 数据来源 | 国际轨道数据 |
| 星历时间: | 2026-03-14T06:01:31+0800 20小时前 查看轨道信息 |
| 半长轴: | 6861.134km |
| 偏心率: | 0.0001578 |
| 轨道倾角: | 42.999° |
| 近地点辐角 | 277.464° |
| 升交点赤经 | 148.810° |
| 平近点角 | 82.603° |
| 近地点: | 481.914km |
| 远地点: | 484.08km |
| 周期: | 94.266分钟 |
| 每日圈数: | 15.275975 |